DLH4DM EDDC-EDDM

Flight info

Callsign DLH4DM
Flight time 0h 42m
Altitude 30000
Route ABKIS4E ABKIS Z715 URONA/N0461F290 T703 LULAR/N0460F300 T105 LANDU LANDU2B
Aircraft A320/M-SDE3FGHIRWY/LB1

Departure

Time 2026-05-07 17:16
Airport Dresden Airport (EDDC)

Arrival

Time 2026-05-07 17:58
Airport Munich Airport (EDDM)
Time Latitude Longitude Altitude Speed Heading
2026-05-07 16:50 51.12626 13.76540 748 ft 0 kts 221°
2026-05-07 17:06 51.12642 13.76562 750 ft 4 kts 221°
2026-05-07 17:06 51.12659 13.76585 751 ft 4 kts 229°
2026-05-07 17:06 51.12668 13.76618 751 ft 4 kts 285°
2026-05-07 17:07 51.12655 13.76650 751 ft 4 kts 311°
2026-05-07 17:07 51.12648 13.76663 749 ft 0 kts 311°
2026-05-07 17:10 51.12651 13.76658 753 ft 3 kts 310°
2026-05-07 17:11 51.12675 13.76613 753 ft 6 kts 310°
2026-05-07 17:11 51.12700 13.76567 750 ft 7 kts 311°
2026-05-07 17:11 51.12741 13.76487 754 ft 7 kts 298°
2026-05-07 17:11 51.12763 13.76444 751 ft 5 kts 311°
2026-05-07 17:12 51.12756 13.76344 753 ft 12 kts 225°
2026-05-07 17:12 51.12703 13.76272 753 ft 8 kts 220°
2026-05-07 17:12 51.12667 13.76222 754 ft 5 kts 220°
2026-05-07 17:12 51.12617 13.76154 756 ft 15 kts 220°
2026-05-07 17:13 51.12546 13.76056 758 ft 12 kts 221°
2026-05-07 17:13 51.12488 13.75975 762 ft 10 kts 221°
2026-05-07 17:13 51.12441 13.75910 763 ft 8 kts 220°
2026-05-07 17:13 51.12390 13.75841 763 ft 12 kts 220°
2026-05-07 17:14 51.12378 13.75731 764 ft 12 kts 294°
2026-05-07 17:14 51.12416 13.75596 764 ft 15 kts 300°
2026-05-07 17:14 51.12491 13.75511 764 ft 13 kts 11°
2026-05-07 17:14 51.12540 13.75566 763 ft 0 kts 41°
2026-05-07 17:15 51.12590 13.75636 763 ft 42 kts 41°
2026-05-07 17:15 51.13010 13.76213 756 ft 114 kts 41°
2026-05-07 17:15 51.13766 13.77241 785 ft 166 kts 39°
2026-05-07 17:15 51.14730 13.78532 1122 ft 192 kts 41°
2026-05-07 17:16 51.15702 13.79948 2121 ft 187 kts 40°
2026-05-07 17:16 51.16708 13.81369 2662 ft 203 kts 40°
2026-05-07 17:16 51.17824 13.82919 3109 ft 223 kts 39°
2026-05-07 17:16 51.19063 13.84623 3642 ft 247 kts 40°
2026-05-07 17:17 51.20135 13.86852 4373 ft 265 kts 69°
2026-05-07 17:17 51.20362 13.89798 5273 ft 274 kts 93°
2026-05-07 17:17 51.19908 13.92753 6214 ft 279 kts 121°
2026-05-07 17:17 51.18603 13.95029 7148 ft 281 kts 143°
2026-05-07 17:18 51.17094 13.97015 8163 ft 283 kts 140°
2026-05-07 17:18 51.15663 13.99195 9168 ft 285 kts 136°
2026-05-07 17:18 51.14286 14.01458 10131 ft 289 kts 135°
2026-05-07 17:18 51.12847 14.03887 10611 ft 311 kts 135°
2026-05-07 17:19 51.11316 14.06483 10912 ft 334 kts 135°
2026-05-07 17:19 51.09493 14.08936 11232 ft 352 kts 151°
2026-05-07 17:19 51.07188 14.10316 11881 ft 357 kts 171°
2026-05-07 17:19 51.04710 14.10371 12644 ft 359 kts 191°
2026-05-07 17:20 51.02353 14.09077 13436 ft 362 kts 210°
2026-05-07 17:20 51.00376 14.06604 14182 ft 365 kts 224°
2026-05-07 17:20 50.98546 14.03786 14893 ft 368 kts 224°
2026-05-07 17:20 50.96694 14.00940 15572 ft 373 kts 224°
2026-05-07 17:21 50.94823 13.98080 16281 ft 375 kts 224°
2026-05-07 17:21 50.92955 13.95237 16940 ft 379 kts 224°
2026-05-07 17:21 50.91020 13.92296 17558 ft 384 kts 224°
2026-05-07 17:21 50.89078 13.89350 18187 ft 388 kts 223°
2026-05-07 17:22 50.87121 13.86390 18750 ft 391 kts 223°
2026-05-07 17:22 50.85173 13.83447 19280 ft 395 kts 223°
2026-05-07 17:22 50.83145 13.80383 19801 ft 400 kts 224°
2026-05-07 17:22 50.81162 13.77270 20333 ft 403 kts 228°
2026-05-07 17:23 50.79530 13.73656 20864 ft 406 kts 241°
2026-05-07 17:23 50.78254 13.69654 21371 ft 410 kts 244°
2026-05-07 17:23 50.77088 13.65523 21863 ft 414 kts 247°
2026-05-07 17:23 50.76045 13.61368 22399 ft 416 kts 250°
2026-05-07 17:24 50.75047 13.57050 22926 ft 419 kts 251°
2026-05-07 17:24 50.74078 13.52695 23409 ft 422 kts 251°
2026-05-07 17:24 50.73100 13.48297 23834 ft 425 kts 251°
2026-05-07 17:24 50.72099 13.43883 24241 ft 428 kts 251°
2026-05-07 17:25 50.71076 13.39468 24646 ft 431 kts 250°
2026-05-07 17:25 50.70030 13.35043 25035 ft 433 kts 250°
2026-05-07 17:25 50.68956 13.30566 25441 ft 435 kts 250°
2026-05-07 17:25 50.67877 13.26098 25844 ft 438 kts 250°
2026-05-07 17:26 50.66790 13.21601 26214 ft 441 kts 250°
2026-05-07 17:26 50.65698 13.17062 26589 ft 443 kts 250°
2026-05-07 17:26 50.64602 13.12511 26902 ft 447 kts 250°
2026-05-07 17:26 50.63499 13.07929 27181 ft 451 kts 250°
2026-05-07 17:27 50.62286 13.03350 27502 ft 454 kts 247°
2026-05-07 17:27 50.60927 12.98818 27821 ft 457 kts 245°
2026-05-07 17:27 50.59468 12.94361 28198 ft 459 kts 243°
2026-05-07 17:27 50.57946 12.89930 28549 ft 461 kts 243°
2026-05-07 17:28 50.56403 12.85497 28864 ft 463 kts 243°
2026-05-07 17:28 50.54870 12.81041 29164 ft 466 kts 243°
2026-05-07 17:28 50.53344 12.76523 29461 ft 468 kts 243°
2026-05-07 17:28 50.51834 12.71983 29743 ft 470 kts 244°
2026-05-07 17:29 50.50328 12.67412 29999 ft 472 kts 244°
2026-05-07 17:29 50.48821 12.62827 30058 ft 473 kts 244°
2026-05-07 17:29 50.45799 12.53647 30048 ft 474 kts 244°
2026-05-07 17:30 50.42763 12.44539 30055 ft 474 kts 244°
2026-05-07 17:30 50.39690 12.35393 30055 ft 474 kts 244°
2026-05-07 17:31 50.36611 12.26263 30057 ft 474 kts 243°
2026-05-07 17:31 50.33324 12.17301 30038 ft 475 kts 237°
2026-05-07 17:32 50.29585 12.08791 30025 ft 475 kts 237°
2026-05-07 17:32 50.26475 12.01718 30003 ft 474 kts 236°
2026-05-07 17:33 50.24288 11.97876 30020 ft 476 kts 219°
2026-05-07 17:33 50.21402 11.95365 30045 ft 477 kts 199°
2026-05-07 17:33 50.18146 11.94529 30046 ft 478 kts 179°
2026-05-07 17:33 50.14888 11.95462 30027 ft 478 kts 159°
2026-05-07 17:34 50.12026 11.98044 30045 ft 476 kts 140°
2026-05-07 17:34 50.09496 12.01373 30034 ft 475 kts 139°
2026-05-07 17:34 50.04537 12.07951 30032 ft 465 kts 139°
2026-05-07 17:35 49.99485 12.14168 30033 ft 463 kts 151°
2026-05-07 17:35 49.93600 12.18245 30045 ft 463 kts 157°
2026-05-07 17:36 49.87670 12.22153 30043 ft 463 kts 158°
2026-05-07 17:36 49.81734 12.26070 29693 ft 464 kts 157°
2026-05-07 17:37 49.78756 12.28036 29405 ft 465 kts 157°
2026-05-07 17:37 49.75782 12.30001 29120 ft 465 kts 158°
2026-05-07 17:37 49.72842 12.32107 28559 ft 467 kts 152°
2026-05-07 17:37 49.70110 12.34815 27867 ft 469 kts 144°
2026-05-07 17:38 49.67510 12.37879 27195 ft 471 kts 143°
2026-05-07 17:38 49.64900 12.40944 26543 ft 473 kts 144°
2026-05-07 17:38 49.62274 12.44011 25902 ft 475 kts 144°
2026-05-07 17:38 49.59628 12.47086 25279 ft 477 kts 144°
2026-05-07 17:39 49.56963 12.50178 24655 ft 479 kts 144°
2026-05-07 17:39 49.54303 12.53262 24195 ft 477 kts 144°
2026-05-07 17:39 49.51654 12.56331 24009 ft 477 kts 144°
2026-05-07 17:39 49.49004 12.59398 24037 ft 478 kts 144°
2026-05-07 17:40 49.46339 12.62481 23936 ft 478 kts 144°
2026-05-07 17:40 49.43692 12.65536 23225 ft 473 kts 145°
2026-05-07 17:40 49.40949 12.68220 22400 ft 464 kts 155°
2026-05-07 17:40 49.37982 12.70048 21599 ft 455 kts 166°
2026-05-07 17:41 49.34913 12.70939 20823 ft 446 kts 178°
2026-05-07 17:41 49.31880 12.70931 20068 ft 437 kts 188°
2026-05-07 17:41 49.28925 12.70091 19331 ft 429 kts 199°
2026-05-07 17:41 49.26152 12.68493 18595 ft 422 kts 207°
2026-05-07 17:42 49.23506 12.66605 17817 ft 418 kts 207°
2026-05-07 17:42 49.20878 12.64738 17012 ft 415 kts 208°
2026-05-07 17:42 49.18274 12.62880 16238 ft 411 kts 208°
2026-05-07 17:42 49.15697 12.61029 15475 ft 408 kts 208°
2026-05-07 17:43 49.13141 12.59192 14732 ft 405 kts 208°
2026-05-07 17:43 49.10601 12.57375 14003 ft 401 kts 208°
2026-05-07 17:43 49.08084 12.55580 13222 ft 398 kts 208°
2026-05-07 17:43 49.05587 12.53802 12416 ft 394 kts 207°
2026-05-07 17:44 49.03117 12.52042 11648 ft 389 kts 207°
2026-05-07 17:44 49.00584 12.50686 11190 ft 382 kts 199°
2026-05-07 17:44 48.98044 12.49564 11031 ft 378 kts 199°
2026-05-07 17:44 48.95521 12.48424 10947 ft 378 kts 199°
2026-05-07 17:45 48.93019 12.47281 10694 ft 375 kts 199°
2026-05-07 17:45 48.90564 12.46163 10446 ft 358 kts 199°
2026-05-07 17:45 48.88236 12.45110 10205 ft 344 kts 200°
2026-05-07 17:45 48.86000 12.44106 10043 ft 321 kts 200°
2026-05-07 17:46 48.83964 12.43201 10037 ft 289 kts 200°
2026-05-07 17:46 48.82105 12.42378 10046 ft 271 kts 200°
2026-05-07 17:46 48.80308 12.41571 10048 ft 269 kts 200°
2026-05-07 17:46 48.78541 12.40770 10048 ft 267 kts 200°
2026-05-07 17:47 48.76762 12.39966 10050 ft 267 kts 200°
2026-05-07 17:47 48.74975 12.39165 10018 ft 267 kts 200°
2026-05-07 17:47 48.73193 12.38368 9831 ft 267 kts 200°
2026-05-07 17:47 48.71411 12.37575 9297 ft 266 kts 200°
2026-05-07 17:48 48.69646 12.36792 8775 ft 263 kts 200°
2026-05-07 17:48 48.67892 12.36014 8281 ft 261 kts 200°
2026-05-07 17:48 48.66156 12.35245 8139 ft 262 kts 200°
2026-05-07 17:48 48.64397 12.34462 7836 ft 262 kts 200°
2026-05-07 17:49 48.62656 12.33685 7509 ft 260 kts 200°
2026-05-07 17:49 48.60918 12.32910 7217 ft 260 kts 200°
2026-05-07 17:49 48.59191 12.32142 7045 ft 258 kts 199°
2026-05-07 17:49 48.57464 12.31377 7039 ft 259 kts 200°
2026-05-07 17:50 48.55734 12.30612 6939 ft 262 kts 199°
2026-05-07 17:50 48.53987 12.29841 6565 ft 260 kts 199°
2026-05-07 17:50 48.52258 12.29077 6183 ft 258 kts 199°
2026-05-07 17:50 48.50532 12.28313 5794 ft 257 kts 199°
2026-05-07 17:51 48.48820 12.27556 5403 ft 257 kts 199°
2026-05-07 17:51 48.47107 12.26800 5054 ft 255 kts 199°
2026-05-07 17:51 48.45406 12.26053 4990 ft 255 kts 199°
2026-05-07 17:51 48.43700 12.25301 4998 ft 256 kts 199°
2026-05-07 17:52 48.41992 12.24550 4989 ft 256 kts 198°
2026-05-07 17:52 48.40283 12.23799 4993 ft 256 kts 198°
2026-05-07 17:52 48.38609 12.22939 4992 ft 250 kts 210°
2026-05-07 17:52 48.37329 12.21402 4992 ft 233 kts 232°
2026-05-07 17:53 48.36730 12.19202 4991 ft 226 kts 271°
2026-05-07 17:53 48.37065 12.16913 5001 ft 226 kts 287°
2026-05-07 17:53 48.37155 12.14585 5006 ft 227 kts 259°
2026-05-07 17:53 48.36868 12.12247 5002 ft 227 kts 263°
2026-05-07 17:54 48.36680 12.09885 5005 ft 227 kts 264°
2026-05-07 17:54 48.36509 12.07524 4962 ft 228 kts 264°
2026-05-07 17:54 48.36335 12.05160 4742 ft 225 kts 264°
2026-05-07 17:54 48.36162 12.02833 4460 ft 223 kts 264°
2026-05-07 17:55 48.35994 12.00580 4158 ft 208 kts 265°
2026-05-07 17:55 48.35839 11.98498 3895 ft 194 kts 265°
2026-05-07 17:55 48.35694 11.96567 3662 ft 176 kts 265°
2026-05-07 17:55 48.35566 11.94855 3434 ft 159 kts 265°
2026-05-07 17:56 48.35444 11.93227 3227 ft 153 kts 265°
2026-05-07 17:56 48.35326 11.91658 3025 ft 148 kts 265°
2026-05-07 17:56 48.35215 11.90187 2829 ft 140 kts 265°
2026-05-07 17:56 48.35107 11.88759 2637 ft 136 kts 266°
2026-05-07 17:57 48.35001 11.87347 2448 ft 135 kts 267°
2026-05-07 17:57 48.34929 11.86396 2322 ft 135 kts 267°
2026-05-07 17:57 48.34787 11.84529 2062 ft 136 kts 267°
2026-05-07 17:57 48.34679 11.83106 1880 ft 137 kts 267°
2026-05-07 17:58 48.34572 11.81694 1697 ft 136 kts 265°
2026-05-07 17:58 48.34463 11.80284 1513 ft 135 kts 265°
2026-05-07 17:58 48.34363 11.78988 1481 ft 111 kts 265°
2026-05-07 17:58 48.34303 11.78187 1485 ft 33 kts 265°
2026-05-07 17:59 48.34332 11.77939 1482 ft 23 kts 289°
2026-05-07 17:59 48.34381 11.77770 1476 ft 14 kts 294°
2026-05-07 17:59 48.34410 11.77668 1473 ft 5 kts 293°
2026-05-07 17:59 48.34410 11.77667 1473 ft 0 kts 293°
2026-05-07 18:00 48.34412 11.77662 1485 ft 5 kts 292°
2026-05-07 18:00 48.34432 11.77588 1482 ft 8 kts 292°
2026-05-07 18:00 48.34452 11.77516 1471 ft 5 kts 295°
2026-05-07 18:00 48.34469 11.77477 1477 ft 4 kts 314°
2026-05-07 18:01 48.34504 11.77448 1482 ft 9 kts 344°
2026-05-07 18:01 48.34551 11.77435 1484 ft 0 kts 352°
2026-05-07 18:01 48.34555 11.77434 1485 ft 3 kts 352°
2026-05-07 18:01 48.34607 11.77430 1485 ft 7 kts 11°
2026-05-07 18:02 48.34640 11.77585 1477 ft 6 kts 83°
2026-05-07 18:02 48.34645 11.77652 1482 ft 7 kts 83°
2026-05-07 18:02 48.34651 11.77748 1482 ft 13 kts 84°
2026-05-07 18:03 48.34665 11.77913 1485 ft 19 kts 82°
2026-05-07 18:03 48.34682 11.78134 1472 ft 23 kts 83°
2026-05-07 18:03 48.34700 11.78368 1477 ft 23 kts 83°
2026-05-07 18:03 48.34718 11.78607 1485 ft 21 kts 83°
2026-05-07 18:04 48.34736 11.78841 1485 ft 24 kts 83°
2026-05-07 18:04 48.34756 11.79102 1485 ft 26 kts 84°
2026-05-07 18:04 48.34775 11.79346 1479 ft 16 kts 83°
2026-05-07 18:04 48.34788 11.79505 1482 ft 12 kts 82°
2026-05-07 18:05 48.34815 11.79555 1481 ft 7 kts 24°
2026-05-07 18:05 48.34398 11.79538 1487 ft 0 kts 266°